Weather History for Mount Holly, NJ

Change the Weather History Date:

Sunday, January 12, 2014

  Actual Average (KWRI) Record (KWRI)
Temperature  
Mean Temperature 40 °F -  
Max Temperature 52 °F 37 °F 57 °F (2006)
Min Temperature 28 °F 22 °F 15 °F (1997)
Degree Days  
Heating Degree Days 25    
Moisture  
Dew Point 30 °F    
Average Humidity 64    
Maximum Humidity 92    
Minimum Humidity 51    
Precipitation  
Precipitation 0.00 in - - ()
Sea Level Pressure  
Sea Level Pressure 29.84 in    
Wind  
Wind Speed 10 mph (WNW)    
Max Wind Speed 18 mph    
Max Gust Speed 31 mph    
Visibility 10 miles    
Events Rain    
Averages and records for this station are not official NWS values.
T = Trace of Precipitation, MM = Missing Value Source: NWS Daily Summary

Daily Weather History Graph

Daily Weather History Graph

Search for Another Location

Airport:

Trip Planner

Search our weather history database for the weather conditions in past years. The results will help you decide how hot, cold, wet, or windy it might be!

Date:

Astronomy

Jan. 12, 2014 Rise Set
Actual Time 7:20 AM EST 4:55 PM EST
Civil Twilight 6:50 AM EST 5:25 PM EST
Nautical Twilight 6:16 AM EST 5:58 PM EST
Astronomical Twilight 5:44 AM EST 6:31 PM EST
Moon 2:21 PM EST (1/12) 4:16 AM EST (1/12)
Length of Visible Light 10h 35m
Length of Day
9h 35m
Waxing Gibbous, 89% of the Moon is Illuminated
Jan 12
Waxing Gibbous
Jan 15
Full
Jan 24
Last Quarter
Jan 30
New
Feb 6
First Quarter

Hourly Weather History & Observations

Time (EST) Temp. Windchill Dew Point Humidity Pressure Visibility Wind Dir Wind Speed Gust Speed Precip Events Conditions
12:54 AM 52.0 °F - 48.0 °F 86% 29.48 in 10.0 mi West 11.5 mph - 0.00 in   Overcast
1:23 AM 51.1 °F - 46.0 °F 83% 29.50 in 10.0 mi NW 8.1 mph - 0.00 in Rain Light Rain
1:54 AM 50.0 °F - 42.1 °F 74% 29.51 in 10.0 mi WNW 8.1 mph - 0.00 in   Overcast
2:54 AM 48.9 °F - 37.0 °F 64% 29.56 in 10.0 mi WNW 13.8 mph 23.0 mph 0.00 in   Overcast
3:54 AM 46.0 °F 41.4 °F 32.0 °F 58% 29.58 in 10.0 mi WNW 9.2 mph 19.6 mph N/A   Mostly Cloudy
4:54 AM 45.0 °F 38.5 °F 30.9 °F 58% 29.59 in 10.0 mi WNW 13.8 mph 25.3 mph N/A   Partly Cloudy
5:54 AM 43.0 °F 36.8 °F 28.9 °F 58% 29.63 in 10.0 mi West 11.5 mph 23.0 mph N/A   Clear
6:54 AM 42.1 °F 36.6 °F 28.0 °F 58% 29.69 in 10.0 mi West 9.2 mph 18.4 mph N/A   Clear
7:54 AM 42.1 °F 37.1 °F 27.0 °F 55% 29.75 in 10.0 mi West 8.1 mph 21.9 mph N/A   Partly Cloudy
8:54 AM 43.0 °F 36.0 °F 27.0 °F 53% 29.80 in 10.0 mi West 13.8 mph 27.6 mph N/A   Overcast
9:54 AM 43.0 °F 37.2 °F 27.0 °F 53% 29.83 in 10.0 mi WNW 10.4 mph 21.9 mph N/A   Overcast
10:54 AM 43.0 °F 36.0 °F 28.9 °F 58% 29.87 in 10.0 mi WNW 13.8 mph 21.9 mph N/A   Overcast
11:54 AM 43.0 °F 35.4 °F 27.0 °F 53% 29.86 in 10.0 mi West 16.1 mph 31.1 mph N/A   Overcast
12:54 PM 44.1 °F 36.2 °F 27.0 °F 51% 29.87 in 10.0 mi WNW 18.4 mph 29.9 mph N/A   Overcast
1:54 PM 44.1 °F 37.4 °F 27.0 °F 51% 29.89 in 10.0 mi WNW 13.8 mph 25.3 mph N/A   Overcast
2:54 PM 44.1 °F 38.6 °F 28.0 °F 53% 29.94 in 10.0 mi West 10.4 mph 23.0 mph N/A   Overcast
3:54 PM 44.1 °F 38.6 °F 27.0 °F 51% 29.97 in 10.0 mi WNW 10.4 mph 21.9 mph N/A   Overcast
4:54 PM 43.0 °F 38.8 °F 27.0 °F 53% 30.00 in 10.0 mi WNW 6.9 mph - N/A   Scattered Clouds
5:54 PM 42.1 °F 38.4 °F 28.0 °F 58% 30.03 in 10.0 mi West 5.8 mph - N/A   Mostly Cloudy
6:54 PM 41.0 °F 39.0 °F 28.0 °F 60% 30.06 in 10.0 mi West 3.5 mph - N/A   Partly Cloudy
7:54 PM 35.1 °F 32.2 °F 28.0 °F 76% 30.07 in 10.0 mi West 3.5 mph - N/A   Clear
8:54 PM 33.1 °F 30.0 °F 28.0 °F 82% 30.09 in 10.0 mi West 3.5 mph - N/A   Clear
9:54 PM 30.9 °F - 27.0 °F 85% 30.10 in 10.0 mi Calm Calm - N/A   Clear
10:54 PM 28.9 °F 25.2 °F 27.0 °F 92% 30.12 in 10.0 mi South 3.5 mph - N/A   Clear
11:54 PM 30.0 °F - 26.1 °F 85% 30.12 in 8.0 mi Calm Calm - N/A   Clear